Aérodrome :
LOGIN :

S'inscrire | Disclaimer

   EN    FR    IT 

 










Légende :    VFR   VFR Marginal   IFR   IFR Intensif   IFR Très Intensif
Visi : 
Plafond : 
>= 8 km
>= 3000ft
5 à 8 km
1000 à 3000 ft
1500m à 5 km
500 à 1000 ft
800 à 1500m
200 à 500 ft
< 800m
< 200 ft
Symboles :   Orages  Brouillard  Fortes neiges  Fortes précipitations  Vent > 20 kt
SIGMETs :   Divers  Orages  Givrage  Turbulence  Onde Orograph.  Cendres Volcan.







- Altitude de l'aérodrome : 1300 ft
- Code IATA : LIG
- Voir les cartes d'approche


LFBL - Limoges

DERNIER METAR :
  • 260100Z AUTO 06011KT CAVOK M03/M12 Q1015 NOSIG

METARs EXPIRÉS :
  • 260030Z AUTO 05014KT CAVOK M02/M12 Q1015 NOSIG
  • 260000Z AUTO 05017KT CAVOK M02/M11 Q1015 NOSIG
  • 252330Z AUTO 05016KT CAVOK M02/M11 Q1015 NOSIG
  • 252300Z AUTO 05015KT CAVOK M02/M11 Q1015 NOSIG
  • 252230Z AUTO 06013KT CAVOK M02/M11 Q1015 NOSIG

TAF TAF LFBL
Valide du 26 à 00h jusqu'au 27 à 00h UTC


252300Z 2600/2624 05012KT CAVOK
TEMPO 2611/2618 05015G25KT
ATIS : +33 5 55 48 40 37
Pas de NOTAMs connus pour ce terrain.



MET'MAP, la Météo Aéronautique d'un coup d'oeil ! - Copyright ORBIFLY Décembre 2007 - Disclaimer

ORBIFLY MET'MAP TEAM :

Programmation & Développement : Alexandra Zaïnal
Conception & Développement : Baudouin d'Aumeries
Co-Programmation & Développement : Marc-Olivier Méhu
Soutien technique & logistique : Manuel Goepfert

Contact : metmap@orbifly.com




SOURCES & CREDITS :

   NOAA